This is the latest recevied weather packets stored in our database for station/object KD4MBW. If no packets are shown the sender has not sent any weather packets the latest 10 day(s).
| Time | Temp. | Humidity | Pressure | Rain* | Wind** | Luminosity | Snow |
|---|---|---|---|---|---|---|---|
| 1777312337 | 26.67° C | 74% | 1017.8 hPa | 0 mm | - | 795 W/m² | - |
| 1777312034 | 26.67° C | 75% | 1018 hPa | 0 mm | - | 788 W/m² | - |
| 1777311730 | 26.11° C | 76% | 1018.1 hPa | 0 mm | - | 787 W/m² | - |
| 1777311428 | 26.11° C | 78% | 1018 hPa | 0 mm | - | 800 W/m² | - |
| 1777311125 | 26.11° C | 77% | 1018 hPa | 0 mm | - | 801 W/m² | - |
| 1777310823 | 25.56° C | 78% | 1018 hPa | 0 mm | - | 798 W/m² | - |
| 1777310520 | 25° C | 80% | 1018.2 hPa | 0 mm | - | 651 W/m² | - |
| 1777310217 | 25° C | 80% | 1018.4 hPa | 0 mm | - | 806 W/m² | - |
| 1777309914 | 25.56° C | 81% | 1018.5 hPa | 0 mm | - | 464 W/m² | - |
| 1777309612 | 25° C | 80% | 1018.4 hPa | 0 mm | - | 812 W/m² | - |
| 1777309309 | 24.44° C | 82% | 1018.4 hPa | 0 mm | - | 795 W/m² | - |
| 1777309008 | 23.89° C | 83% | 1018.4 hPa | 0 mm | - | 816 W/m² | - |
| 1777308704 | 24.44° C | 83% | 1018.6 hPa | 0 mm | - | 640 W/m² | - |
| 1777308399 | 23.89° C | 84% | 1018.7 hPa | 0 mm | - | 834 W/m² | - |
| 1777308094 | 23.33° C | 84% | 1018.7 hPa | 0 mm | - | 496 W/m² | - |
| 1777307792 | 24.44° C | 84% | 1018.7 hPa | 0 mm | - | 838 W/m² | - |
| 1777307489 | 23.89° C | 84% | 1018.5 hPa | 0 mm | - | 943 W/m² | - |
| 1777307186 | 23.33° C | 85% | 1018.5 hPa | 0 mm | - | 564 W/m² | - |
| 1777306884 | 22.78° C | 87% | 1018.7 hPa | 0 mm | - | 518 W/m² | - |
| 1777306581 | 22.78° C | 87% | 1018.7 hPa | 0 mm | - | 859 W/m² | - |
| 1777306275 | 22.78° C | 87% | 1018.7 hPa | 0 mm | - | 437 W/m² | - |
| 1777305971 | 23.33° C | 86% | 1018.8 hPa | 0 mm | - | 632 W/m² | - |
| 1777305668 | 22.78° C | 87% | 1018.8 hPa | 0 mm | - | 473 W/m² | - |
| 1777305364 | 22.78° C | 87% | 1018.7 hPa | 0 mm | - | 394 W/m² | - |
| 1777305058 | 22.22° C | 89% | 1018.9 hPa | 0 mm | - | 428 W/m² | - |
* Rain latest hour (hover to see other rain measurements)
** Current wind speed in m/s (hover to see current wind gust speed)